| time (UTC) | temp F | wind direction | speed MPH | gust MPH | rain 1hr in | rain 24hr in | rain mn in | humidity % | barometer mb |
| 20260506231056 | 63 | 200 | 5.0 | 7.0 | 0.00 | 0.00 | 0.00 | 47 | 1017.9 |
| 20260506230027 | 63 | 202 | 4.0 | 6.0 | 0.00 | 0.00 | 0.00 | 47 | 1017.9 |
| 20260506225020 | 63 | 230 | 3.0 | 5.0 | 0.00 | 0.00 | 0.00 | 48 | 1017.9 |
| 20260506224031 | 63 | 211 | 3.0 | 5.0 | 0.00 | 0.00 | 0.00 | 49 | 1018.0 |
| 20260506223048 | 63 | 213 | 3.0 | 4.0 | 0.00 | 0.00 | 0.00 | 50 | 1018.0 |
| 20260506222018 | 63 | 213 | 0.0 | 3.0 | 0.00 | 0.00 | 0.00 | 50 | 1018.1 |
| 20260506221031 | 63 | 223 | 2.0 | 3.0 | 0.00 | 0.00 | 0.00 | 50 | 1018.3 |
| 20260506220045 | 63 | 206 | 2.0 | 4.0 | 0.00 | 0.00 | 0.00 | 51 | 1018.1 |
| 20260506215021 | 62 | 215 | 2.0 | 4.0 | 0.00 | 0.00 | 0.00 | 51 | 1018.1 |
| 20260506214054 | 63 | 206 | 4.0 | 6.0 | 0.00 | 0.00 | 0.00 | 51 | 1018.1 |
| 20260506213027 | 63 | 219 | 4.0 | 5.0 | 0.00 | 0.00 | 0.00 | 50 | 1018.2 |
| 20260506212020 | 63 | 204 | 3.0 | 5.0 | 0.00 | 0.00 | 0.00 | 51 | 1018.2 |
| 20260506211019 | 62 | 206 | 3.0 | 5.0 | 0.00 | 0.00 | 0.00 | 51 | 1018.4 |
| 20260506210033 | 62 | 209 | 4.0 | 6.0 | 0.00 | 0.00 | 0.00 | 52 | 1018.3 |
| 20260506205026 | 62 | 186 | 3.0 | 5.0 | 0.00 | 0.00 | 0.00 | 54 | 1018.5 |
| 20260506204043 | 62 | 208 | 3.0 | 6.0 | 0.00 | 0.00 | 0.00 | 56 | 1018.4 |
| 20260506203036 | 62 | 218 | 4.0 | 6.0 | 0.00 | 0.00 | 0.00 | 58 | 1018.5 |
| 20260506202030 | 61 | 190 | 5.0 | 7.0 | 0.00 | 0.00 | 0.00 | 60 | 1018.4 |
| 20260506201020 | 61 | 217 | 3.0 | 7.0 | 0.00 | 0.00 | 0.00 | 63 | 1018.5 |
| 20260506200017 | 61 | 205 | 6.0 | 8.0 | 0.00 | 0.00 | 0.00 | 63 | 1018.4 |
| 20260506195030 | 61 | 196 | 5.0 | 8.0 | 0.00 | 0.00 | 0.00 | 66 | 1018.5 |
| 20260506194023 | 61 | 196 | 5.0 | 7.0 | 0.00 | 0.00 | 0.00 | 67 | 1018.5 |
| 20260506193034 | 61 | 196 | 6.0 | 8.0 | 0.00 | 0.00 | 0.00 | 69 | 1018.4 |
| 20260506192032 | 61 | 180 | 5.0 | 7.0 | 0.00 | 0.00 | 0.00 | 70 | 1018.3 |
| 20260506191023 | 61 | 214 | 5.0 | 7.0 | 0.00 | 0.00 | 0.00 | 72 | 1018.2 |
| 20260506190033 | 61 | 206 | 4.0 | 6.0 | 0.00 | 0.00 | 0.00 | 72 | 1018.1 |
| 20260506185026 | 61 | 200 | 4.0 | 8.0 | 0.00 | 0.00 | 0.00 | 73 | 1018.0 |
| 20260506184040 | 62 | 190 | 4.0 | 7.0 | 0.00 | 0.00 | 0.00 | 73 | 1018.0 |
| 20260506183032 | 62 | 209 | 3.0 | 4.0 | 0.00 | 0.00 | 0.00 | 72 | 1017.8 |
| 20260506182025 | 62 | 336 | 0.0 | 2.0 | 0.00 | 0.00 | 0.00 | 71 | 1017.6 |
| 20260506181017 | 62 | 336 | 2.0 | 4.0 | 0.00 | 0.00 | 0.00 | 71 | 1017.6 |
| 20260506180031 | 62 | 336 | 2.0 | 3.0 | 0.00 | 0.00 | 0.00 | 70 | 1017.5 |
| 20260506175028 | 62 | 336 | 0.0 | 0.0 | 0.00 | 0.00 | 0.00 | 70 | 1017.4 |
| 20260506174020 | 63 | 336 | 0.0 | 0.0 | 0.00 | 0.00 | 0.00 | 69 | 1017.3 |
| 20260506173032 | 63 | 336 | 0.0 | 0.0 | 0.00 | 0.00 | 0.00 | 69 | 1017.3 |
| 20260506172024 | 64 | 336 | 0.0 | 2.0 | 0.00 | 0.00 | 0.00 | 68 | 1017.2 |
| 20260506171021 | 64 | 336 | 2.0 | 3.0 | 0.00 | 0.00 | 0.00 | 66 | 1017.2 |
| 20260506170033 | 65 | 336 | 2.0 | 4.0 | 0.00 | 0.00 | 0.00 | 65 | 1017.2 |
| 20260506165025 | 65 | 336 | 2.0 | 4.0 | 0.00 | 0.00 | 0.00 | 63 | 1017.1 |
| 20260506164057 | 66 | 336 | 3.0 | 4.0 | 0.00 | 0.00 | 0.00 | 63 | 1017.0 |
| 20260506163033 | 66 | 333 | 3.0 | 6.0 | 0.00 | 0.00 | 0.00 | 63 | 1017.0 |
| 20260506162024 | 66 | 318 | 4.0 | 6.0 | 0.00 | 0.00 | 0.00 | 62 | 1017.0 |
| 20260506161017 | 67 | 341 | 4.0 | 6.0 | 0.00 | 0.00 | 0.00 | 61 | 1017.1 |
| 20260506160050 | 68 | 19 | 3.0 | 6.0 | 0.00 | 0.00 | 0.00 | 61 | 1017.0 |
| 20260506155026 | 68 | 360 | 3.0 | 8.0 | 0.00 | 0.00 | 0.00 | 60 | 1017.0 |
| 20260506154019 | 69 | 301 | 3.0 | 6.0 | 0.00 | 0.00 | 0.00 | 59 | 1017.0 |
| 20260506153032 | 69 | 355 | 3.0 | 6.0 | 0.00 | 0.00 | 0.00 | 59 | 1017.1 |
| 20260506152029 | 69 | 330 | 4.0 | 8.0 | 0.00 | 0.00 | 0.00 | 58 | 1017.0 |
| 20260506151021 | 70 | 329 | 5.0 | 9.0 | 0.00 | 0.00 | 0.00 | 57 | 1017.0 |
| 20260506150053 | 70 | 340 | 4.0 | 8.0 | 0.00 | 0.00 | 0.00 | 57 | 1017.0 |
| 20260506145024 | 70 | 277 | 2.0 | 8.0 | 0.00 | 0.00 | 0.00 | 57 | 1017.0 |
| 20260506144021 | 71 | 320 | 5.0 | 9.0 | 0.00 | 0.00 | 0.00 | 55 | 1017.1 |
| 20260506143037 | 71 | 343 | 3.0 | 10.0 | 0.00 | 0.00 | 0.00 | 55 | 1017.1 |
| 20260506142028 | 71 | 45 | 4.0 | 8.0 | 0.00 | 0.00 | 0.00 | 55 | 1017.0 |
| 20260506141023 | 70 | 343 | 6.0 | 9.0 | 0.00 | 0.00 | 0.00 | 55 | 1017.1 |
| 20260506140034 | 71 | 12 | 5.0 | 9.0 | 0.00 | 0.00 | 0.00 | 55 | 1017.1 |
| 20260506135047 | 71 | 351 | 5.0 | 9.0 | 0.00 | 0.00 | 0.00 | 54 | 1017.2 |
| 20260506134021 | 72 | 5 | 3.0 | 11.0 | 0.00 | 0.00 | 0.00 | 53 | 1017.2 |
| 20260506133018 | 73 | 9 | 4.0 | 8.0 | 0.00 | 0.00 | 0.00 | 51 | 1017.1 |
| 20260506132028 | 73 | 343 | 4.0 | 9.0 | 0.00 | 0.00 | 0.00 | 50 | 1017.1 |
| 20260506131041 | 73 | 5 | 5.0 | 10.0 | 0.00 | 0.00 | 0.00 | 50 | 1017.1 |
| 20260506130033 | 73 | 9 | 5.0 | 9.0 | 0.00 | 0.00 | 0.00 | 49 | 1017.1 |
| 20260506125030 | 73 | 39 | 4.0 | 8.0 | 0.00 | 0.00 | 0.00 | 49 | 1017.2 |
| 20260506124020 | 73 | 360 | 5.0 | 10.0 | 0.00 | 0.00 | 0.00 | 49 | 1017.3 |
| 20260506123032 | 73 | 44 | 4.0 | 9.0 | 0.00 | 0.00 | 0.00 | 48 | 1017.3 |
| 20260506122025 | 73 | 34 | 5.0 | 10.0 | 0.00 | 0.00 | 0.00 | 47 | 1017.5 |
| 20260506121022 | 72 | 48 | 5.0 | 10.0 | 0.00 | 0.00 | 0.00 | 46 | 1017.4 |
| 20260506120035 | 73 | 355 | 4.0 | 9.0 | 0.00 | 0.00 | 0.00 | 39 | 1017.6 |
| 20260506115027 | 73 | 13 | 4.0 | 9.0 | 0.00 | 0.00 | 0.00 | 45 | 1017.6 |
| 20260506114039 | 73 | 57 | 4.0 | 10.0 | 0.00 | 0.00 | 0.00 | 47 | 1017.7 |
| 20260506113030 | 73 | 29 | 4.0 | 9.0 | 0.00 | 0.00 | 0.00 | 47 | 1017.6 |
| 20260506112024 | 73 | 57 | 5.0 | 10.0 | 0.00 | 0.00 | 0.00 | 44 | 1017.6 |
| 20260506111018 | 73 | 19 | 5.0 | 11.0 | 0.00 | 0.00 | 0.00 | 45 | 1017.8 |
| 20260506110031 | 72 | 61 | 5.0 | 9.0 | 0.00 | 0.00 | 0.00 | 46 | 1017.6 |
| 20260506105027 | 72 | 344 | 5.0 | 11.0 | 0.00 | 0.00 | 0.00 | 44 | 1017.6 |
| 20260506104039 | 72 | 5 | 8.0 | 12.0 | 0.00 | 0.00 | 0.00 | 43 | 1017.6 |
| 20260506103030 | 73 | 335 | 6.0 | 12.0 | 0.00 | 0.00 | 0.00 | 42 | 1017.6 |
| 20260506102023 | 73 | 350 | 4.0 | 11.0 | 0.00 | 0.00 | 0.00 | 41 | 1017.6 |
| 20260506101019 | 73 | 355 | 6.0 | 11.0 | 0.00 | 0.00 | 0.00 | 41 | 1017.6 |
| 20260506100032 | 72 | 19 | 4.0 | 14.0 | 0.00 | 0.00 | 0.00 | 41 | 1017.7 |
| 20260506095025 | 71 | 24 | 8.0 | 13.0 | 0.00 | 0.00 | 0.00 | 40 | 1017.6 |
| 20260506094039 | 72 | 10 | 5.0 | 12.0 | 0.00 | 0.00 | 0.00 | 40 | 1017.6 |
| 20260506093016 | 71 | 12 | 5.0 | 10.0 | 0.00 | 0.00 | 0.00 | 40 | 1017.7 |
| 20260506092027 | 72 | 42 | 5.0 | 10.0 | 0.00 | 0.00 | 0.00 | 40 | 1017.7 |
| 20260506091019 | 72 | 28 | 5.0 | 11.0 | 0.00 | 0.00 | 0.00 | 41 | 1017.9 |
| 20260506090033 | 72 | 340 | 4.0 | 10.0 | 0.00 | 0.00 | 0.00 | 39 | 1017.7 |
| 20260506085029 | 71 | 348 | 5.0 | 9.0 | 0.00 | 0.00 | 0.00 | 39 | 1017.7 |
| 20260506084022 | 72 | 337 | 4.0 | 10.0 | 0.00 | 0.00 | 0.00 | 38 | 1017.6 |
| 20260506083033 | 72 | 35 | 5.0 | 12.0 | 0.00 | 0.00 | 0.00 | 37 | 1017.6 |
| 20260506082026 | 72 | 53 | 3.0 | 9.0 | 0.00 | 0.00 | 0.00 | 37 | 1017.5 |
| 20260506081022 | 71 | 49 | 4.0 | 9.0 | 0.00 | 0.00 | 0.00 | 37 | 1017.4 |
| 20260506073030 | 71 | 360 | 3.0 | 6.0 | 0.00 | 0.00 | 0.00 | 36 | 1017.1 |
| 20260506072026 | 70 | 45 | 4.0 | 8.0 | 0.00 | 0.00 | 0.00 | 35 | 1017.1 |
| 20260506071019 | 70 | 58 | 3.0 | 6.0 | 0.00 | 0.00 | 0.00 | 36 | 1017.1 |
| 20260506062028 | 68 | 78 | 2.0 | 7.0 | 0.00 | 0.00 | 0.00 | 32 | 1017.0 |
| 20260506061022 | 68 | 101 | 1.0 | 4.0 | 0.00 | 0.00 | 0.00 | 35 | 1016.9 |
| 20260506051017 | 63 | 144 | 3.0 | 5.0 | 0.00 | 0.00 | 0.00 | 46 | 1016.6 |
| 20260506045025 | 61 | 184 | 3.0 | 6.0 | 0.00 | 0.00 | 0.00 | 46 | 1016.5 |
| 20260506044016 | 61 | 203 | 4.0 | 8.0 | 0.00 | 0.00 | 0.00 | 45 | 1016.5 |
| 20260506043028 | 60 | 188 | 4.0 | 7.0 | 0.00 | 0.00 | 0.00 | 46 | 1016.5 |
| 20260506042018 | 61 | 192 | 3.0 | 8.0 | 0.00 | 0.00 | 0.00 | 42 | 1016.4 |
| 20260506041036 | 60 | 211 | 5.0 | 6.0 | 0.00 | 0.00 | 0.00 | 43 | 1016.4 |
| 20260506040027 | 59 | 105 | 0.0 | 7.0 | 0.00 | 0.00 | 0.00 | 45 | 1016.3 |
| 20260506035021 | 60 | 200 | 5.0 | 8.0 | 0.00 | 0.00 | 0.00 | 42 | 1016.2 |
| 20260506034054 | 58 | 205 | 6.0 | 9.0 | 0.00 | 0.00 | 0.00 | 47 | 1016.2 |
| 20260506033030 | 58 | 192 | 7.0 | 10.0 | 0.00 | 0.00 | 0.00 | 47 | 1016.1 |
| 20260506032022 | 58 | 198 | 6.0 | 10.0 | 0.00 | 0.00 | 0.00 | 46 | 1016.1 |
| 20260506031035 | 58 | 185 | 8.0 | 10.0 | 0.00 | 0.00 | 0.00 | 46 | 1016.0 |
| 20260506030026 | 58 | 188 | 6.0 | 10.0 | 0.00 | 0.00 | 0.00 | 46 | 1016.1 |
| 20260506025022 | 57 | 207 | 6.0 | 10.0 | 0.00 | 0.00 | 0.00 | 48 | 1016.1 |
| 20260506024015 | 58 | 192 | 6.0 | 10.0 | 0.00 | 0.00 | 0.00 | 47 | 1016.0 |
| 20260506023028 | 57 | 205 | 6.0 | 10.0 | 0.00 | 0.00 | 0.00 | 47 | 1016.1 |
| 20260506022026 | 56 | 197 | 7.0 | 10.0 | 0.00 | 0.00 | 0.00 | 50 | 1016.1 |
| 20260506021016 | 56 | 190 | 7.0 | 10.0 | 0.00 | 0.00 | 0.00 | 51 | 1016.1 |
| 20260506020030 | 56 | 207 | 8.0 | 10.0 | 0.00 | 0.00 | 0.00 | 51 | 1016.1 |
| 20260506015024 | 56 | 186 | 7.0 | 10.0 | 0.00 | 0.00 | 0.00 | 52 | 1016.3 |
| 20260506014020 | 57 | 199 | 8.0 | 11.0 | 0.00 | 0.00 | 0.00 | 52 | 1016.4 |
| 20260506013034 | 57 | 211 | 7.0 | 10.0 | 0.00 | 0.00 | 0.00 | 52 | 1016.5 |
| 20260506012047 | 57 | 227 | 7.0 | 9.0 | 0.00 | 0.00 | 0.00 | 52 | 1016.3 |
| 20260506011020 | 57 | 192 | 7.0 | 9.0 | 0.00 | 0.00 | 0.00 | 53 | 1016.4 |
| 20260506010038 | 56 | 192 | 5.0 | 8.0 | 0.00 | 0.00 | 0.00 | 54 | 1016.4 |
| 20260506005030 | 57 | 209 | 5.0 | 8.0 | 0.00 | 0.00 | 0.00 | 53 | 1016.5 |
| 20260506004023 | 56 | 211 | 5.0 | 7.0 | 0.00 | 0.00 | 0.00 | 55 | 1016.5 |
| 20260506003036 | 56 | 201 | 6.0 | 9.0 | 0.00 | 0.00 | 0.00 | 55 | 1016.5 |
| 20260506002032 | 57 | 196 | 4.0 | 7.0 | 0.00 | 0.00 | 0.00 | 55 | 1016.4 |
| 20260506001044 | 58 | 196 | 4.0 | 7.0 | 0.00 | 0.00 | 0.00 | 52 | 1016.4 |
| 20260506000034 | 59 | 205 | 3.0 | 4.0 | 0.00 | 0.00 | 0.00 | 51 | 1016.5 |
| 20260505235048 | 60 | 210 | 2.0 | 4.0 | 0.00 | 0.00 | 0.00 | 48 | 1016.5 |
| 20260505234024 | 59 | 265 | 3.0 | 4.0 | 0.00 | 0.00 | 0.00 | 50 | 1016.6 |
| 20260505233036 | 59 | 280 | 2.0 | 6.0 | 0.00 | 0.00 | 0.00 | 51 | 1016.5 |
| 20260505232027 | 58 | 170 | 4.0 | 8.0 | 0.00 | 0.00 | 0.00 | 53 | 1016.7 |